Weather in Kavalerskiy

Russia / Rostov Oblast     46°20′36″N   40°27′05″E
В апреле 2022 года жителям России запретили посещать сайт meteo.paraplan.net по решению Генеральной прокуратуры. Аудитория сайта уменьшилась в 10 раз. Владельцы сайта не видят смысла в поддержке погодного сервера в таких условиях. Сайт будет закрыт в октябре.
temp.,
°C
wind,
m/s
gust,
m/s
humid.,
%
clouds,
%
prec.,
mm/h
press.,
hPa
HPBL,
m
29 september, thu
thu2900:00+17sw4105927 0.0 1008253
03:00+16sw410769 0.0 1009241
06:00+15sw37900 0.0 1010145
09:00+19wsw46680 0.0 1011455
12:00+24wsw45430 0.0 10121529
15:00+25w45360 0.0 10122012
18:00+22wnw234815 0.0 101330
21:00+19nnw335856 0.0 101539
30 september, fri
fri3000:00+18nne11680 0.0 101511
03:00+17se11695 0.0 101611
06:00+16se116830 0.0 101711
09:00+21se225161 0.0 1018250
12:00+25sse22440 0.0 10181034
15:00+27sw22340 0.0 10171964
18:00+24nw00400 0.0 101811
21:00+22e11470 0.0 101811
1 october, sat
sat100:00+20ese22590 0.0 101811
03:00+20sse11630 0.0 101911
06:00+19s11679 0.0 102011
09:00+23sw22520 0.0 1021294
12:00+27sw23365 0.0 10201257
15:00+29wsw233067 0.0 10191994
18:00+25s113715 0.0 101811
21:00+23ssw014363 0.0 101811
2 october, sun
sun200:00+21e0149100 0.0 101711
03:00+20s2255100 0.0 101623
06:00+19sse2259100 0.0 101523
09:00+22sse2348100 0.0 1014236
12:00+27se3437100 0.0 1013918
15:00+28ese5632100 0.0 10101616
18:00+25ese4840100 0.0 1008192
21:00+23ese51342100 0.0 1007348
3 october, mon
mon300:00+21e51245100 0.0 1005324
03:00+20e61356100 0.0 1004326
06:00+18se256299 0.0 1004114
09:00+19se3559100 0.1 1005181
12:00+20sw51065100 0.0 1006888
15:00+19w6976100 0.8 10081071
18:00+15w5978100 1.3 1011930
21:00+14wnw3774100 1.7 1013527